カタログに戻る

STARLINK-31396

運用中通信VLEO
NORAD 59409·PAYLOAD·🇺🇸 United States

打ち上げ Apr 5, 2024 から Cape Canaveral Space Force Station

Loading…

次のパス (今後24時間)

TLE

最新Source: CelesTrak SupGP

元期: Sep 14, 2026, 22:23 UTC

1 59409C 24064M   26257.93312500  .00071417  00000+0  25862-2 0  2579
2 59409  43.0040  56.9211 0001700 269.6327 299.1056 15.27548810    11

AllMySatでSTARLINK-31396をリアルタイム追跡

Download on the App Store